Unalaska, AK (99685)

8:10 PM AKDT on September 03, 2015 (GMT -0800)
Dutch Harbor | | Change Station
CLOSE
Current Station
Airport
Location: Dutch Harbor,
Elevation: 13 ft
Nearby Weather Stations

Elev 13 ft 53.90 °N, 166.54 °W | Updated 14 minutes ago

Mostly Cloudy
Mostly Cloudy
55 °F
Feels Like 55 °F
N
4
Wind Variable Wind from North

Today
High -- | Low -- °F
--% Chance of Precip.
Yesterday
High -- | Low -- °F
Precip. -- in
8:18 AM 9:52 PM
Waning Gibbous, 63% visible
Pressure 29.87 in
Visibility 10.0 miles
Clouds Few 2000 ft
Mostly Cloudy 2700 ft
Mostly Cloudy 4000 ft
Dew Point 51 °F
Humidity 86%
Rainfall 0.01 in
Snow Depth Not available.
UV 1 out of 12
Pollen Not available.
Air Quality Not available.
Flu Activity Not available.
METAR PADU 040356Z 35003KT 10SM FEW020 BKN027 BKN040 13/11 A2985 RMK AO2 SLP113 EM T01280106
Pressure 29.87 in
Visibility 10.0 miles
Clouds Few 2000 ft
Mostly Cloudy 2700 ft
Mostly Cloudy 4000 ft
Dew Point 51 °F
Humidity 86%
Rainfall 0.01 in
Snow Depth Not available.
UV 1 out of 12
Pollen Not available.
Air Quality Not available.
Flu Activity Not available.
METAR PADU 040356Z 35003KT 10SM FEW020 BKN027 BKN040 13/11 A2985 RMK AO2 SLP113 EM T01280106

10-Day Weather Forecast

×

Almanac

Astronomy

Sep. 03, 2015 Rise Set
Actual Time
Civil Twilight
Nautical Twilight
Astronomical Twilight
Moon
Length of Visible Light
Length of Day
Tomorrow will be .
, % of the Moon is Illuminated

Today's Extremes

State Highs State Lows

Community

WunderPhotos

Upload Photos

1,852,126 photos uploaded!

WunderBlogs® & News

Nearby

Air Quality

  Air Quality AQ Index Pollutant
Not available.

Snow Depth

Station Depth Elevation

Earthquake Activity

City Distance Mag. Time & Date
Minimum magnitude displayed is 2.5.

Coastal Water Temperatures

Place Temperature

Stations

Nearby Weather Stations

Station Location Temp. Windchill Dew Point Humidity Wind Precip. Elev Updated Type